Flag for Belarus Weather past 2 weeks in Barysaw, Belarus

Now
61 °F

Sunny.


Feels Like: 61 °F
Forecast: 51 / 63 °F
Wind: 8 mph from Southeast

Location: Minsk

Current Time: Sep 20, 2014 at 9:06:21 PM

Latest Report: Sep 20, 2014 at 4:30 PM


Visibility: 10 mi

Pressure: 30.07 "Hg

Humidity: 42%

Dew point: 37 °F

Location of BarysawLocation

Historic Weather in Barysaw — Graph

°F

Barysaw temperature yesterday

Maximum temperature yesterday: 64 °F (at 2:00 PM)
Minimum temperature yesterday: 34 °F (at 6:30 AM)
Average temperature yesterday: 49 °F

Past Weeks' High & Low Weather Summary

 TemperatureHumidityPressure
High77 °F (Sep 13, 4:30 PM)100% (Sep 5, 10:30 PM)30.39 "Hg (Sep 5, 10:30 PM)
Low34 °F (Sep 16, 7:00 AM)27% (Sep 12, 2:00 PM)29.95 "Hg (Sep 10, 12:00 AM)
Average56 °F77%30.20 "Hg
* Reported Sep 5 4:00 PM — Sep 20 4:00 PM, Barysaw, Weather by CustomWeather, © 2014

Note: Actual official high and low records may vary slightly from our data, if they occured in-between our weather recording intervals... More about our weather records

Advertising

Barysaw weather history for previous 24 hours

 ConditionsComfort  
Time TempWeatherWind HumidityBarometerVisibility
4:00 PM
Sep 20
63 °FSunny.8 mph39%30.09 "Hg10 mi
3:30 PM61 °FSunny.8 mph42%30.09 "Hg10 mi
3:00 PM63 °FSunny.10 mph37%30.09 "Hg10 mi
2:30 PM63 °FSunny.13 mph37%30.09 "Hg10 mi
2:00 PM63 °FSunny.10 mph37%30.12 "Hg10 mi
1:30 PM63 °FSunny.13 mph37%30.12 "Hg10 mi
1:00 PM61 °FSunny.8 mph39%30.12 "Hg10 mi
12:30 PM61 °FSunny.6 mph39%30.12 "Hg10 mi
12:00 PM61 °FSunny.8 mph39%30.12 "Hg10 mi
11:30 AM57 °FPassing clouds.6 mph48%30.12 "HgN/A
11:00 AM55 °FSunny.6 mph55%30.15 "Hg10 mi
10:30 AM52 °FSunny.8 mph58%30.15 "Hg10 mi
10:00 AM50 °FSunny.8 mph62%30.12 "Hg10 mi
9:30 AM48 °FSunny.8 mph66%30.15 "Hg10 mi
9:00 AM46 °FSunny.6 mph71%30.15 "Hg10 mi
8:30 AM45 °FSunny.3 mph71%30.15 "Hg10 mi
8:00 AM43 °FSunny.10 mph76%30.15 "Hg10 mi
7:30 AM41 °FClear.6 mph87%30.15 "Hg10 mi
7:00 AM39 °FClear.6 mph87%30.15 "Hg10 mi
6:30 AM39 °FClear.3 mph87%30.18 "Hg10 mi
5:30 AM39 °FClear.6 mph87%30.18 "Hg6 mi
5:00 AM41 °FClear.6 mph81%30.18 "Hg6 mi
4:00 AM41 °FClear.6 mph81%30.18 "Hg6 mi
3:00 AM41 °FClear.3 mph81%30.21 "Hg5 mi
2:30 AM41 °FClear.6 mph81%30.21 "Hg5 mi
2:00 AM41 °FClear.6 mph81%30.21 "Hg5 mi
1:30 AM41 °FClear.6 mph81%30.21 "Hg5 mi
1:00 AM43 °FClear.6 mph76%30.21 "Hg10 mi
12:30 AM43 °FClear.6 mph81%30.21 "Hg10 mi
12:00 AM43 °FClear.3 mph81%30.24 "Hg10 mi
11:30 PM
Sep 19
45 °FClear.6 mph76%30.24 "Hg10 mi
11:00 PM45 °FClear.6 mph76%30.24 "Hg10 mi
10:30 PM46 °FClear.6 mph71%30.24 "Hg10 mi
10:00 PM46 °FClear.No wind71%30.24 "Hg10 mi
9:30 PM45 °FClear.No wind81%30.24 "Hg10 mi
9:00 PM46 °FClear.No wind82%30.24 "Hg10 mi
Weather by CustomWeather, © 2014

See weather overviewHow to use our weather pages